Flag for Canada Weather past 2 weeks in Calgary, Alberta, Canada

Now
52 °F

Light rain. Partly sunny.


Feels Like: 49 °F
Forecast: 45 / 65 °F
Wind: 8 mph from Southeast

Location: Calgary International

Current Time: May 29, 2015 at 8:51:33 PM

Latest Report: May 29, 2015 at 8:00 PM


Visibility: 11 mi

Pressure: 30.19 "Hg

Humidity: 82%

Dew point: 46 °F

Location of CalgaryLocation

Historic Weather in Calgary — Graph

°F

Calgary temperature yesterday

Maximum temperature yesterday: 59 °F (at 12:00 AM)
Minimum temperature yesterday: 48 °F (at 8:00 AM)
Average temperature yesterday: 52 °F

Past Weeks' High & Low Weather Summary

 TemperatureHumidityPressure
High75 °F (May 23, 5:00 PM)100% (May 15, 9:00 AM)30.49 "Hg (May 15, 9:00 AM)
Low34 °F (May 16, 9:00 PM)15% (May 21, 4:00 PM)29.85 "Hg (May 25, 3:00 PM)
Average54 °F54%30.13 "Hg
* Reported May 14 7:00 PM — May 29 7:00 PM, Calgary, Weather by CustomWeather, © 2015

Note: Actual official high and low records may vary slightly from our data, if they occured in-between our weather recording intervals... More about our weather records

Advertising

Calgary weather history for previous 24 hours

 ConditionsComfort  
Time TempWeatherWind HumidityBarometerVisibility
7:00 PM
Fri, May 29
52 °FLight rain. Overcast.12 mph82%30.21 "Hg6 mi
6:00 PM52 °FLight rain. Overcast.12 mph88%30.21 "Hg6 mi
5:00 PM54 °FLight rain. Overcast.10 mph77%30.22 "Hg6 mi
4:00 PM55 °FLight rain. Overcast.12 mph63%30.22 "Hg7 mi
3:47 PM55 °FLight rain. Overcast.12 mph63%30.22 "Hg7 mi
3:00 PM57 °FOvercast.15 mph51%30.22 "Hg10 mi
2:00 PM55 °FOvercast.12 mph55%30.24 "Hg10 mi
1:00 PM55 °FMore clouds than sun.16 mph51%30.24 "Hg10 mi
12:00 PM57 °FPartly sunny.15 mph48%30.25 "Hg10 mi
11:00 AM54 °FPartly sunny.17 mph54%30.27 "Hg10 mi
10:00 AM52 °FOvercast.15 mph58%30.27 "Hg10 mi
9:00 AM50 °FMostly cloudy.14 mph67%30.28 "Hg10 mi
8:00 AM46 °FMore clouds than sun.13 mph82%30.29 "Hg10 mi
7:00 AM45 °FPartly sunny.12 mph81%30.29 "Hg11 mi
6:00 AM45 °FOvercast.9 mph81%30.30 "Hg11 mi
5:00 AM45 °FMostly cloudy.12 mph76%30.31 "Hg8 mi
4:00 AM45 °FPartly cloudy.12 mph71%30.32 "Hg10 mi
3:00 AM48 °FPassing clouds.9 mph76%30.32 "Hg15 mi
2:00 AM48 °FPassing clouds.8 mph76%30.32 "Hg8 mi
1:00 AM48 °FPassing clouds.9 mph76%30.34 "Hg10 mi
12:00 AM48 °FPartly cloudy.8 mph76%30.35 "Hg10 mi
11:00 PM
Thu, May 28
50 °FPassing clouds.8 mph71%30.37 "Hg11 mi
10:00 PM50 °FPartly sunny.7 mph71%30.37 "Hg8 mi
9:00 PM52 °FPartly sunny.7 mph67%30.35 "Hg10 mi
8:00 PM52 °FOvercast.3 mph62%30.36 "Hg10 mi
Weather by CustomWeather, © 2015

See weather overviewHow to use our weather pages